| time (UTC) | temp F | wind direction | speed knots | gust knots | rain 1hr in | rain 24hr in | rain mn in | humidity % | barometer mb |
| 20260507093015 | 43 | 262 | 6.1 | 9.6 | 2.76 | 9.27 | 6.47 | 69 | 954.1 |
| 20260507092015 | 43 | 296 | 2.6 | 7.0 | 2.76 | 9.27 | 6.47 | 69 | 954.1 |
| 20260507091035 | 43 | 274 | 6.1 | 11.3 | 2.76 | 9.27 | 6.47 | 69 | 954.1 |
| 20260507090014 | 43 | 290 | 4.3 | 10.4 | 0.20 | 6.71 | 3.91 | 69 | 954.1 |
| 20260507085015 | 44 | 324 | 2.6 | 7.8 | 0.20 | 6.71 | 3.91 | 68 | 953.9 |
| 20260507084015 | 43 | 265 | 3.5 | 9.6 | 0.20 | 6.51 | 3.71 | 71 | 953.9 |
| 20260507083015 | 43 | 341 | 2.6 | 5.2 | 0.20 | 6.51 | 3.71 | 71 | 953.9 |
| 20260507082015 | 43 | 262 | 3.5 | 7.8 | 0.20 | 6.51 | 3.71 | 69 | 953.9 |
| 20260507081015 | 44 | 258 | 4.3 | 8.7 | 0.20 | 6.51 | 3.71 | 68 | 953.8 |
| 20260507080035 | 43 | 271 | 7.0 | 11.3 | 0.20 | 6.51 | 3.71 | 68 | 953.7 |
| 20260507075015 | 43 | 256 | 8.7 | 13.9 | 0.20 | 6.51 | 3.71 | 67 | 953.6 |
| 20260507074015 | 44 | 268 | 7.8 | 17.4 | 0.00 | 6.31 | 3.52 | 66 | 953.5 |
| 20260507073016 | 44 | 259 | 6.1 | 10.4 | 0.00 | 6.31 | 3.52 | 65 | 953.5 |
| 20260507072015 | 44 | 244 | 4.3 | 10.4 | 0.00 | 6.31 | 3.52 | 64 | 953.4 |
| 20260507071015 | 44 | 246 | 3.5 | 7.8 | 0.00 | 6.31 | 3.52 | 65 | 953.8 |
| 20260507070015 | 43 | 235 | 7.0 | 12.2 | 0.00 | 6.31 | 3.52 | 66 | 953.5 |
| 20260507065015 | 43 | 219 | 6.1 | 13.9 | 2.56 | 6.31 | 3.52 | 66 | 953.4 |
| 20260507064016 | 43 | 241 | 8.7 | 15.6 | 2.56 | 6.31 | 3.52 | 66 | 953.4 |
| 20260507063015 | 43 | 247 | 8.7 | 12.2 | 2.56 | 6.31 | 3.52 | 65 | 953.4 |
| 20260507062015 | 43 | 232 | 7.0 | 11.3 | 2.56 | 6.31 | 3.52 | 64 | 953.4 |
| 20260507061016 | 43 | 234 | 7.8 | 13.0 | 2.56 | 6.31 | 3.52 | 63 | 953.4 |
| 20260507060015 | 42 | 228 | 8.7 | 14.8 | 2.56 | 6.31 | 3.52 | 62 | 953.2 |
| 20260507055016 | 42 | 220 | 7.8 | 13.9 | 0.00 | 3.75 | 0.96 | 62 | 953.5 |
| 20260507054015 | 42 | 236 | 8.7 | 13.9 | 0.00 | 3.75 | 0.96 | 63 | 953.3 |
| 20260507053015 | 42 | 222 | 7.0 | 10.4 | 0.00 | 3.75 | 0.96 | 63 | 953.5 |
| 20260507052014 | 42 | 218 | 7.0 | 10.4 | 0.00 | 3.75 | 0.96 | 62 | 953.1 |
| 20260507051015 | 42 | 224 | 7.0 | 12.2 | 0.00 | 3.75 | 0.96 | 62 | 953.0 |
| 20260507050016 | 42 | 224 | 7.0 | 12.2 | 0.00 | 3.75 | 0.96 | 61 | 953.0 |
| 20260507045016 | 42 | 213 | 6.1 | 9.6 | 0.00 | 3.75 | 0.96 | 58 | 952.9 |
| 20260507044015 | 43 | 217 | 7.0 | 9.6 | 0.24 | 3.75 | 0.96 | 57 | 952.8 |
| 20260507043015 | 43 | 193 | 5.2 | 7.0 | 0.24 | 3.75 | 0.96 | 56 | 952.7 |
| 20260507042015 | 42 | 169 | 4.3 | 6.1 | 0.47 | 3.75 | 0.96 | 57 | 952.7 |
| 20260507041015 | 42 | 193 | 3.5 | 5.2 | 0.47 | 3.75 | 0.96 | 57 | 952.7 |
| 20260507040016 | 42 | 198 | 4.3 | 5.2 | 0.47 | 3.75 | 0.96 | 59 | 952.7 |
| 20260507035015 | 42 | 207 | 4.3 | 5.2 | 0.47 | 3.75 | 0.96 | 60 | 952.6 |
| 20260507034015 | 42 | 228 | 5.2 | 7.8 | 0.24 | 3.52 | 0.72 | 62 | 952.6 |
| 20260507033035 | 42 | 233 | 6.1 | 8.7 | 0.24 | 3.52 | 0.72 | 62 | 952.5 |
| 20260507032015 | 42 | 205 | 5.2 | 7.8 | 0.00 | 3.28 | 0.49 | 61 | 952.4 |
| 20260507031015 | 41 | 200 | 5.2 | 7.8 | 0.00 | 3.28 | 0.49 | 63 | 952.3 |
| 20260507030015 | 42 | 210 | 5.2 | 7.0 | 0.00 | 3.28 | 0.49 | 61 | 952.4 |
| 20260507025016 | 41 | 222 | 5.2 | 7.8 | 0.00 | 3.28 | 0.49 | 63 | 952.4 |
| 20260507024015 | 41 | 235 | 5.2 | 7.8 | 0.00 | 3.28 | 0.49 | 62 | 952.3 |
| 20260507023016 | 41 | 231 | 3.5 | 7.0 | 0.00 | 3.28 | 0.49 | 62 | 952.3 |
| 20260507022015 | 41 | 240 | 4.3 | 9.6 | 0.00 | 3.28 | 0.49 | 62 | 952.3 |
| 20260507021015 | 41 | 225 | 5.2 | 7.0 | 0.24 | 3.28 | 0.49 | 62 | 952.4 |
| 20260507020015 | 41 | 224 | 6.1 | 9.6 | 0.24 | 3.28 | 0.49 | 64 | 952.3 |
| 20260507015035 | 41 | 225 | 7.8 | 11.3 | 0.24 | 3.28 | 0.49 | 63 | 952.3 |
| 20260507014016 | 41 | 228 | 7.0 | 11.3 | 0.24 | 3.28 | 0.49 | 63 | 952.3 |
| 20260507013015 | 42 | 219 | 7.8 | 10.4 | 0.24 | 3.28 | 0.49 | 62 | 952.4 |
| 20260507012016 | 41 | 221 | 7.0 | 8.7 | 0.24 | 3.28 | 0.49 | 61 | 952.4 |
| 20260507011015 | 41 | 226 | 7.8 | 11.3 | 0.00 | 3.05 | 0.25 | 61 | 952.3 |
| 20260507010036 | 41 | 230 | 7.0 | 10.4 | 0.01 | 3.05 | 0.25 | 61 | 952.2 |
| 20260507005015 | 41 | 232 | 7.8 | 11.3 | 0.01 | 3.05 | 0.25 | 61 | 952.3 |
| 20260507004035 | 41 | 219 | 7.8 | 11.3 | 0.01 | 3.05 | 0.25 | 61 | 952.2 |
| 20260507003014 | 41 | 230 | 7.8 | 11.3 | 0.25 | 3.05 | 0.25 | 62 | 952.2 |
| 20260507002035 | 41 | 230 | 8.7 | 13.0 | 0.25 | 3.05 | 0.25 | 61 | 952.2 |
| 20260507001036 | 41 | 241 | 10.4 | 16.5 | 0.25 | 3.05 | 0.25 | 62 | 952.2 |
| 20260507000015 | 41 | 244 | 11.3 | 15.6 | 0.24 | 3.03 | 0.24 | 62 | 952.1 |
| 20260506235016 | 41 | 248 | 12.2 | 15.6 | 0.24 | 3.03 | 0.24 | 60 | 952.2 |
| 20260506234015 | 42 | 247 | 13.0 | 16.5 | 0.24 | 3.03 | 0.24 | 59 | 952.2 |
| 20260506233015 | 42 | 253 | 13.9 | 16.5 | 0.00 | 2.80 | 0.00 | 57 | 952.1 |
| 20260506232015 | 42 | 257 | 11.3 | 14.8 | 0.00 | 2.80 | 0.00 | 55 | 952.2 |
| 20260506231015 | 42 | 254 | 11.3 | 13.9 | 0.00 | 2.80 | 0.00 | 55 | 952.2 |
| 20260506230016 | 42 | 250 | 13.0 | 15.6 | 0.00 | 2.80 | 0.00 | 55 | 952.1 |
| 20260506225015 | 42 | 251 | 10.4 | 13.9 | 0.00 | 2.80 | 0.00 | 54 | 952.2 |
| 20260506224016 | 42 | 239 | 13.0 | 17.4 | 0.00 | 2.80 | 0.00 | 56 | 952.1 |
| 20260506223015 | 42 | 244 | 11.3 | 15.6 | 0.00 | 2.80 | 0.00 | 57 | 952.2 |
| 20260506222015 | 42 | 239 | 8.7 | 13.0 | 0.00 | 2.80 | 0.00 | 56 | 952.3 |
| 20260506221036 | 42 | 231 | 6.1 | 8.7 | 0.00 | 2.80 | 0.00 | 55 | 952.4 |
| 20260506220015 | 42 | 203 | 5.2 | 7.8 | 0.00 | 2.80 | 0.00 | 57 | 952.5 |
| 20260506215015 | 42 | 203 | 6.1 | 8.7 | 0.00 | 2.80 | 0.00 | 59 | 952.5 |
| 20260506214015 | 42 | 244 | 10.4 | 14.8 | 0.00 | 2.80 | 0.00 | 57 | 952.5 |
| 20260506213016 | 42 | 233 | 8.7 | 13.9 | 0.00 | 2.99 | 0.00 | 58 | 952.6 |
| 20260506212015 | 42 | 241 | 10.4 | 14.8 | 0.00 | 2.99 | 0.00 | 60 | 952.6 |
| 20260506211015 | 42 | 226 | 6.1 | 9.6 | 0.00 | 2.99 | 0.00 | 60 | 952.6 |
| 20260506210015 | 42 | 234 | 8.7 | 13.0 | 0.00 | 2.99 | 0.00 | 61 | 952.6 |
| 20260506205015 | 42 | 226 | 9.6 | 14.8 | 0.00 | 3.00 | 2.99 | 61 | 952.5 |
| 20260506204037 | 42 | 225 | 9.6 | 14.8 | 0.00 | 3.00 | 2.99 | 61 | 952.6 |
| 20260506203015 | 42 | 224 | 8.7 | 12.2 | 0.00 | 3.00 | 2.99 | 62 | 952.7 |
| 20260506202515 | 42 | 212 | 8.7 | 11.3 | 0.00 | 3.00 | 2.99 | 61 | 952.6 |
| 20260506201515 | 42 | 208 | 8.7 | 10.4 | 0.00 | 3.00 | 2.99 | 61 | 952.6 |
| 20260506200535 | 42 | 221 | 8.7 | 13.0 | 0.00 | 3.00 | 2.99 | 63 | 952.6 |
| 20260506195515 | 42 | 226 | 8.7 | 13.9 | 0.00 | 3.00 | 2.99 | 64 | 952.6 |
| 20260506194515 | 42 | 241 | 8.7 | 13.0 | 0.00 | 3.00 | 2.99 | 63 | 952.5 |
| 20260506193535 | 42 | 253 | 8.7 | 11.3 | 0.00 | 3.00 | 2.99 | 62 | 952.5 |
| 20260506192515 | 42 | 246 | 7.8 | 11.3 | 0.00 | 3.00 | 2.99 | 62 | 952.5 |
| 20260506191515 | 42 | 232 | 7.8 | 13.0 | 0.00 | 3.00 | 2.99 | 63 | 952.5 |
| 20260506190515 | 42 | 232 | 8.7 | 13.0 | 0.00 | 3.00 | 2.99 | 63 | 952.4 |
| 20260506185515 | 42 | 224 | 7.8 | 12.2 | 0.00 | 3.00 | 2.99 | 64 | 952.3 |
| 20260506184516 | 42 | 224 | 8.7 | 13.0 | 0.00 | 3.00 | 2.99 | 65 | 952.3 |
| 20260506183515 | 42 | 225 | 7.8 | 12.2 | 0.00 | 3.00 | 2.99 | 65 | 952.2 |
| 20260506182515 | 42 | 224 | 9.6 | 16.5 | 0.00 | 3.00 | 2.99 | 65 | 952.0 |
| 20260506181515 | 42 | 219 | 9.6 | 13.0 | 0.00 | 3.00 | 2.99 | 64 | 951.9 |
| 20260506180515 | 42 | 207 | 10.4 | 14.8 | 0.00 | 3.00 | 2.99 | 64 | 951.8 |
| 20260506175515 | 42 | 200 | 8.7 | 10.4 | 0.00 | 3.00 | 2.99 | 63 | 951.9 |
| 20260506174535 | 44 | 216 | 7.0 | 11.3 | 0.00 | 3.00 | 2.99 | 59 | 951.8 |
| 20260506173556 | 44 | 243 | 6.1 | 9.6 | 0.00 | 3.00 | 2.99 | 59 | 951.9 |
| 20260506172515 | 44 | 260 | 6.1 | 10.4 | 0.00 | 3.00 | 2.99 | 59 | 951.8 |
| 20260506171515 | 44 | 260 | 9.6 | 13.9 | 0.00 | 3.00 | 2.99 | 59 | 951.7 |
| 20260506170516 | 44 | 237 | 5.2 | 12.2 | 0.00 | 3.00 | 2.99 | 58 | 951.8 |
| 20260506165515 | 44 | 282 | 8.7 | 12.2 | 0.00 | 3.00 | 2.99 | 58 | 951.8 |
| 20260506164515 | 44 | 291 | 4.3 | 7.8 | 0.00 | 3.00 | 2.99 | 57 | 951.9 |
| 20260506163515 | 44 | 295 | 3.5 | 5.2 | 0.00 | 3.00 | 2.99 | 57 | 951.9 |
| 20260506162516 | 44 | 253 | 1.7 | 4.3 | 0.00 | 3.00 | 2.99 | 58 | 951.9 |
| 20260506161515 | 44 | 313 | 2.6 | 4.3 | 0.00 | 3.00 | 2.99 | 59 | 951.9 |
| 20260506160516 | 44 | 294 | 5.2 | 7.8 | 0.00 | 3.00 | 2.99 | 56 | 952.0 |
| 20260506155516 | 44 | 284 | 5.2 | 10.4 | 0.00 | 3.00 | 2.99 | 56 | 952.1 |
| 20260506154515 | 44 | 280 | 3.5 | 5.2 | 0.00 | 3.00 | 2.99 | 55 | 952.1 |
| 20260506153515 | 44 | 317 | 3.5 | 5.2 | 0.00 | 3.00 | 2.99 | 57 | 952.1 |
| 20260506152535 | 45 | 309 | 2.6 | 4.3 | 0.00 | 3.00 | 2.99 | 56 | 952.1 |
| 20260506151515 | 45 | 291 | 3.5 | 5.2 | 0.00 | 3.00 | 2.99 | 54 | 952.1 |
| 20260506150515 | 45 | 308 | 1.7 | 3.5 | 0.00 | 3.00 | 2.99 | 55 | 952.2 |
| 20260506145515 | 44 | 276 | 2.6 | 5.2 | 0.00 | 3.00 | 2.99 | 55 | 952.1 |
| 20260506144516 | 44 | 309 | 4.3 | 5.2 | 0.00 | 3.00 | 2.99 | 55 | 952.1 |
| 20260506143515 | 44 | 315 | 4.3 | 7.0 | 2.56 | 3.00 | 2.99 | 54 | 952.2 |
| 20260506142536 | 44 | 328 | 6.1 | 8.7 | 2.56 | 3.00 | 2.99 | 56 | 952.2 |
| 20260506141515 | 44 | 326 | 6.1 | 7.8 | 2.56 | 3.00 | 2.99 | 57 | 952.2 |
| 20260506140515 | 44 | 323 | 6.1 | 8.7 | 2.56 | 3.00 | 2.99 | 57 | 952.2 |
| 20260506135515 | 44 | 325 | 1.7 | 3.5 | 2.56 | 3.00 | 2.99 | 59 | 952.2 |
| 20260506134515 | 44 | 335 | 2.6 | 3.5 | 2.56 | 3.00 | 2.99 | 59 | 952.2 |
| 20260506133515 | 44 | 344 | 1.7 | 3.5 | 0.00 | 0.44 | 0.44 | 58 | 952.3 |
| 20260506132515 | 46 | 1 | 0.9 | 1.7 | 0.00 | 0.44 | 0.44 | 56 | 952.3 |
| 20260506131535 | 45 | 53 | 0.9 | 1.7 | 0.00 | 0.44 | 0.44 | 57 | 952.3 |
| 20260506130515 | 45 | 43 | 1.7 | 4.3 | 0.00 | 0.44 | 0.44 | 57 | 952.3 |
| 20260506125515 | 45 | 54 | 3.5 | 5.2 | 0.00 | 0.44 | 0.44 | 57 | 952.3 |
| 20260506124536 | 44 | 340 | 1.7 | 3.5 | 0.00 | 0.44 | 0.44 | 58 | 952.4 |
| 20260506123515 | 44 | 11 | 4.3 | 7.8 | 0.00 | 0.44 | 0.44 | 61 | 952.5 |
| 20260506122515 | 44 | 342 | 5.2 | 8.7 | 0.00 | 0.44 | 0.44 | 61 | 952.6 |
| 20260506121515 | 44 | 324 | 4.3 | 5.2 | 0.00 | 0.44 | 0.44 | 60 | 952.6 |
| 20260506120535 | 45 | 306 | 1.7 | 3.5 | 0.24 | 0.44 | 0.44 | 58 | 952.6 |
| 20260506115515 | 46 | 338 | 2.6 | 5.2 | 0.24 | 0.44 | 0.44 | 56 | 952.6 |
| 20260506114516 | 46 | 348 | 0.9 | 14.8 | 0.24 | 0.44 | 0.44 | 52 | 952.7 |
| 20260506113516 | 44 | 348 | 2.6 | 5.2 | 0.24 | 0.44 | 0.44 | 57 | 952.7 |
| 20260506112515 | 45 | 352 | 2.6 | 6.1 | 0.24 | 0.44 | 0.44 | 56 | 952.7 |
| 20260506111516 | 48 | 352 | 0.9 | 4.3 | 0.24 | 0.44 | 0.44 | 51 | 952.7 |
| 20260506110516 | 45 | 344 | 0.9 | 3.5 | 0.00 | 0.20 | 0.20 | 58 | 952.7 |
| 20260506105515 | 43 | 50 | 1.7 | 5.2 | 0.00 | 0.20 | 0.20 | 62 | 952.7 |
| 20260506104515 | 43 | 326 | 4.3 | 6.1 | 0.00 | 0.44 | 0.20 | 65 | 952.7 |
| 20260506103515 | 43 | 354 | 4.3 | 7.8 | 0.00 | 0.44 | 0.20 | 65 | 952.7 |
| 20260506102515 | 44 | 341 | 3.5 | 6.1 | 0.00 | 0.44 | 0.20 | 63 | 952.8 |
| 20260506101515 | 44 | 354 | 1.7 | 3.5 | 0.00 | 0.44 | 0.20 | 61 | 952.8 |
| 20260506100535 | 43 | 9 | 1.7 | 6.1 | 0.00 | 0.44 | 0.20 | 60 | 952.8 |
| 20260506095515 | 46 | 22 | 2.6 | 7.0 | 0.00 | 0.44 | 0.20 | 54 | 952.7 |
| 20260506094515 | 43 | 47 | 0.9 | 3.5 | 0.00 | 0.44 | 0.20 | 65 | 952.8 |